Home > Time Zones > World Clock > Weather > Serbia > Niš > Past weeks

Flag for Serbia Weather past 2 weeks in Niš, Serbia

Now
82 °F

Passing clouds.


Feels Like: 82 °F
Forecast: 61 / 85 °F
Wind: 8 mph from North

Location: Nis Airport

Current Time: Jul 4, 2015 at 2:41:36 PM

Latest Report: Jul 4, 2015 at 2:00 PM


Visibility: N/A

Pressure: 30.18 "Hg

Humidity: 42%

Dew point: 57 °F

Location of NišLocation

Historic Weather in Niš — Graph

°F

Niš temperature yesterday

Maximum temperature yesterday: 84 °F (at 3:00 PM)
Minimum temperature yesterday: 61 °F (at 5:00 AM)
Average temperature yesterday: 73 °F

Past Weeks' High & Low Weather Summary

 TemperatureHumidityPressure
High84 °F (Jul 2, 3:00 PM)100% (Jun 21, 2:00 AM)30.27 "Hg (Jun 21, 2:00 AM)
Low50 °F (Jun 23, 4:30 AM)28% (Jun 23, 3:30 PM)29.80 "Hg (Jun 19, 6:00 PM)
Average65 °F70%30.06 "Hg
* Reported Jun 19 1:00 PM — Jul 4 1:30 PM, Niš, Weather by CustomWeather, © 2015

Note: Actual official high and low records may vary slightly from our data, if they occured in-between our weather recording intervals... More about our weather records

Advertising

Niš weather history for previous 24 hours

 ConditionsComfort  
Time TempWeatherWind HumidityBarometerVisibility
1:30 PM
Sat, Jul 4
81 °FPassing clouds.9 mph48%30.18 "HgN/A
1:00 PM82 °FPassing clouds.9 mph42%30.21 "HgN/A
12:30 PM81 °FPassing clouds.9 mph45%30.21 "HgN/A
12:00 PM82 °FPassing clouds.6 mph40%30.21 "HgN/A
11:30 AM81 °FPassing clouds.3 mph45%30.21 "HgN/A
11:00 AM79 °FPassing clouds.3 mph48%30.21 "HgN/A
10:30 AM77 °FPassing clouds.2 mph51%30.24 "HgN/A
10:00 AM75 °FSunny.No wind54%30.24 "Hg10 mi
9:30 AM73 °FSunny.2 mph57%30.24 "Hg10 mi
9:00 AM72 °FSunny.2 mph61%30.27 "Hg10 mi
8:30 AM68 °FSunny.2 mph69%30.27 "Hg10 mi
8:00 AM68 °FSunny.2 mph69%30.27 "Hg10 mi
7:30 AM64 °FSunny.1 mph73%30.27 "Hg10 mi
7:00 AM63 °FSunny.2 mph77%30.27 "Hg10 mi
6:30 AM61 °FSunny.1 mph83%30.27 "Hg10 mi
6:00 AM57 °FSunny.No wind88%30.27 "Hg10 mi
5:30 AM55 °FClear.1 mph94%30.27 "Hg10 mi
5:00 AM57 °FClear.No wind88%30.27 "Hg10 mi
4:30 AM57 °FClear.1 mph88%30.27 "Hg10 mi
4:00 AM57 °FClear.1 mph88%30.27 "Hg10 mi
3:30 AM59 °FClear.1 mph82%30.27 "Hg10 mi
2:30 AM59 °FClear.1 mph82%30.27 "Hg10 mi
2:00 AM61 °FClear.1 mph77%30.27 "Hg10 mi
1:30 AM59 °FClear.1 mph82%30.27 "Hg10 mi
1:00 AM61 °FClear.1 mph77%30.27 "Hg10 mi
12:30 AM64 °FClear.1 mph68%30.27 "Hg10 mi
12:00 AM66 °FClear.3 mph64%30.27 "Hg10 mi
11:30 PM
Fri, Jul 3
66 °FClear.1 mph64%30.27 "Hg10 mi
11:00 PM68 °FClear.2 mph60%30.27 "Hg10 mi
10:30 PM70 °FClear.1 mph57%30.27 "Hg10 mi
10:00 PM72 °FClear.3 mph50%30.27 "Hg10 mi
9:30 PM72 °FClear.8 mph50%30.24 "Hg10 mi
9:00 PM73 °FPassing clouds.7 mph47%30.24 "HgN/A
8:30 PM75 °FSunny.3 mph47%30.24 "Hg10 mi
8:00 PM79 °FSunny.7 mph39%30.24 "Hg10 mi
7:30 PM81 °FPassing clouds.7 mph39%30.21 "HgN/A
7:00 PM82 °FPassing clouds.7 mph37%30.21 "HgN/A
6:30 PM82 °FPassing clouds.9 mph37%30.21 "HgN/A
6:00 PM84 °FPassing clouds.8 mph35%30.21 "HgN/A
5:30 PM84 °FPassing clouds.7 mph35%30.21 "HgN/A
5:00 PM84 °FPassing clouds.10 mph37%30.21 "HgN/A
4:30 PM84 °FScattered clouds.9 mph40%30.21 "HgN/A
4:00 PM82 °FScattered clouds.9 mph40%30.21 "HgN/A
3:30 PM84 °FScattered clouds.10 mph40%30.21 "HgN/A
3:00 PM84 °FScattered clouds.13 mph35%30.21 "HgN/A
2:30 PM82 °FScattered clouds.14 mph37%30.21 "HgN/A
2:00 PM82 °FScattered clouds.13 mph37%30.21 "HgN/A
Weather by CustomWeather, © 2015

See weather overviewHow to use our weather pages